Location: Arcizac
(43.0933°N, 0.0112°E)
Time: 11:05:17
(UTC+00:00)

Cosmos 1092 Rocket - Pass Details

Date: 14 December 2019
Orbit: 953 x 996 km, 83.0° (Epoch: 23 January)

Event Time Altitude Azimuth Distance (km) Brightness Sun altitude
Rises 16:47:52 0° 167° (SSE) 3,689 7.2 -4.4°
Reaches altitude 10° 16:50:28 10° 162° (SSE) 2,740 6.5 -4.8°
Maximum altitude 16:56:27 48° 90° (E) 1,272 4.3 -5.8°
Drops below altitude 10° 17:02:23 10° 19° (NNE) 2,730 5.9 -6.8°
Sets 17:04:58 0° 14° (NNE) 3,676 6.6 -7.2°
